FW3803 Weather Reports


Display with metric or nautical units.
time (UTC)temp
F
wind
direction
speed
MPH
gust
MPH
rain 1hr
in
rain 24hr
in
rain mn
in
humidity
%
barometer
mb
20260906163556 80 135 1.0 3.0 0.00 0.03 0.00 63 1025.1
20260906163056 80 158 1.0 4.0 0.00 0.04 0.00 63 1025.0
20260906162516 80 158 1.0 5.0 0.00 0.04 0.00 62 1025.0
20260906162016 80 0.0 1.0 0.00 0.04 0.00 67 1025.0
20260906161536 80 0.0 2.0 0.00 0.04 0.00 62 1025.2
20260906161016 81 180 1.0 3.0 0.00 0.04 0.00 66 1025.3
20260906160515 81 0.0 2.0 0.00 0.04 0.00 62 1025.2
20260906160015 81 0.0 3.0 0.00 0.04 0.00 61 1025.3
20260906155516 81 0.0 2.0 0.00 0.04 0.00 62 1025.3
20260906155016 81 158 1.0 3.0 0.00 0.04 0.00 63 1025.2
20260906154516 81 135 1.0 4.0 0.00 0.04 0.00 65 1025.4
20260906154036 81 45 1.0 3.0 0.00 0.04 0.00 66 1025.5
20260906153516 81 203 1.0 2.0 0.00 0.04 0.00 63 1025.4
20260906153015 80 203 1.0 6.0 0.00 0.04 0.00 65 1025.4
20260906152517 80 338 1.0 3.0 0.00 0.04 0.00 62 1025.3
20260906152016 80 0.0 2.0 0.00 0.04 0.00 68 1025.4
20260906151516 80 23 1.0 3.0 0.00 0.04 0.00 68 1025.4
20260906151016 79 158 1.0 4.0 0.00 0.04 0.00 71 1025.4
20260906150515 79 180 1.0 2.0 0.00 0.04 0.00 71 1025.4
20260906150016 79 180 1.0 3.0 0.00 0.04 0.00 73 1025.3
20260906145516 78 158 1.0 3.0 0.00 0.04 0.00 75 1025.3
20260906145016 78 0.0 1.0 0.00 0.04 0.00 77 1025.3
20260906144516 77 0.0 2.0 0.00 0.04 0.00 77 1025.2
20260906144016 77 0.0 1.0 0.00 0.04 0.00 77 1025.1
20260906143516 77 0.0 0.0 0.00 0.04 0.00 77 1025.1
20260906143016 78 0.0 2.0 0.00 0.04 0.00 77 1025.1
20260906142516 78 158 1.0 4.0 0.00 0.04 0.00 75 1024.9
20260906142016 78 180 1.0 4.0 0.00 0.04 0.00 74 1024.8
20260906141515 77 135 1.0 3.0 0.00 0.04 0.00 76 1024.8
20260906141015 77 0.0 3.0 0.00 0.04 0.00 78 1024.8
20260906140536 77 23 1.0 3.0 0.00 0.04 0.00 77 1024.7
20260906140016 77 0.0 3.0 0.00 0.04 0.00 83 1024.7
20260906135536 76 0.0 2.0 0.00 0.04 0.00 81 1024.8
20260906135016 75 0.0 0.0 0.00 0.04 0.00 84 1024.7
20260906134516 75 0.0 0.0 0.00 0.04 0.00 84 1024.6
20260906134016 74 0.0 2.0 0.00 0.04 0.00 84 1024.7
20260906133516 74 0.0 1.0 0.00 0.04 0.00 85 1024.7
20260906133016 74 0.0 2.0 0.00 0.04 0.00 87 1024.8
20260906132516 74 0.0 3.0 0.00 0.04 0.00 86 1024.6
20260906132016 74 0.0 1.0 0.00 0.04 0.00 87 1024.7
20260906131515 74 0.0 0.0 0.00 0.04 0.00 89 1024.7
20260906131015 74 0.0 0.0 0.00 0.04 0.00 91 1024.6
20260906130516 74 0.0 0.0 0.00 0.04 0.00 93 1024.6
20260906130016 73 0.0 0.0 0.00 0.04 0.00 93 1024.5
20260906125516 73 0.0 0.0 0.00 0.04 0.00 93 1024.6
20260906125016 73 0.0 0.0 0.00 0.04 0.00 93 1024.6
20260906124516 72 0.0 0.0 0.00 0.04 0.00 94 1024.6
20260906124016 72 0.0 0.0 0.00 0.04 0.00 94 1024.6
20260906123536 72 0.0 0.0 0.00 0.04 0.00 94 1024.5
20260906123035 72 0.0 0.0 0.00 0.04 0.00 95 1024.4
20260906122516 72 0.0 0.0 0.00 0.04 0.00 95 1024.4
20260906122015 72 0.0 0.0 0.00 0.04 0.00 95 1024.4
20260906121556 71 0.0 0.0 0.00 0.04 0.00 95 1024.3
20260906121016 71 0.0 0.0 0.00 0.04 0.00 95 1024.2
20260906120515 71 0.0 0.0 0.00 0.04 0.00 95 1024.1
20260906120015 72 0.0 0.0 0.00 0.04 0.00 95 1024.2
20260906115516 72 0.0 0.0 0.00 0.04 0.00 95 1024.2
20260906115016 72 0.0 0.0 0.00 0.04 0.00 95 1024.1
20260906114516 72 0.0 0.0 0.00 0.04 0.00 95 1024.3
20260906114015 72 0.0 0.0 0.00 0.04 0.00 95 1024.2
20260906113656 71 0.0 0.0 0.00 0.04 0.00 95 1024.0
20260906113018 71 0.0 0.0 0.00 0.04 0.00 95 1023.8
20260906112516 71 0.0 0.0 0.00 0.04 0.00 95 1023.9
20260906112015 71 0.0 0.0 0.00 0.04 0.00 95 1023.8
20260906111536 71 0.0 0.0 0.00 0.04 0.00 95 1023.7
20260906111016 71 0.0 0.0 0.00 0.04 0.00 95 1023.5
20260906110516 71 0.0 0.0 0.00 0.04 0.00 95 1023.5
20260906110016 71 0.0 0.0 0.00 0.04 0.00 95 1023.5
20260906105516 71 0.0 0.0 0.00 0.04 0.00 95 1023.5
20260906105015 71 0.0 0.0 0.00 0.04 0.00 95 1023.5
20260906104515 71 0.0 0.0 0.00 0.04 0.00 95 1023.4
20260906104016 71 0.0 0.0 0.00 0.04 0.00 95 1023.3
20260906103516 71 0.0 0.0 0.00 0.04 0.00 94 1023.2
20260906103018 71 0.0 0.0 0.00 0.04 0.00 94 1023.2
20260906102516 72 0.0 0.0 0.00 0.04 0.00 95 1023.1
20260906102015 72 0.0 0.0 0.00 0.04 0.00 95 1023.2
20260906101516 72 0.0 0.0 0.00 0.04 0.00 95 1023.1
20260906101015 72 0.0 0.0 0.00 0.04 0.00 95 1023.0
20260906100516 72 0.0 0.0 0.00 0.04 0.00 95 1023.1
20260906100035 72 0.0 0.0 0.00 0.04 0.00 95 1023.0
20260906095515 72 0.0 0.0 0.00 0.04 0.00 95 1022.9
20260906095015 72 0.0 0.0 0.00 0.04 0.00 95 1022.9
20260906094516 72 0.0 0.0 0.00 0.04 0.00 95 1022.7
20260906094015 72 0.0 0.0 0.00 0.04 0.00 95 1022.7
20260906093536 72 0.0 0.0 0.00 0.04 0.00 95 1022.7
20260906093016 72 0.0 0.0 0.00 0.04 0.00 95 1022.8
20260906092515 72 0.0 0.0 0.00 0.04 0.00 95 1022.6
20260906092016 72 0.0 0.0 0.00 0.04 0.00 95 1022.6
20260906091516 72 0.0 0.0 0.00 0.04 0.00 95 1022.4
20260906091015 72 0.0 0.0 0.00 0.04 0.00 95 1022.6
20260906090515 72 0.0 0.0 0.00 0.04 0.00 95 1022.6
20260906090016 72 0.0 0.0 0.00 0.04 0.00 95 1022.5
20260906085515 72 0.0 0.0 0.00 0.04 0.00 95 1022.5
20260906085015 72 0.0 0.0 0.00 0.04 0.00 95 1022.4
20260906084515 72 0.0 0.0 0.00 0.04 0.00 95 1022.4
20260906084035 72 0.0 0.0 0.00 0.04 0.00 95 1022.3
20260906083515 72 0.0 0.0 0.00 0.04 0.00 95 1022.2
20260906083016 72 0.0 0.0 0.00 0.04 0.00 95 1022.3
20260906082515 72 0.0 0.0 0.00 0.04 0.00 95 1022.2
20260906082015 72 0.0 0.0 0.00 0.04 0.00 95 1022.2
20260906081516 72 0.0 0.0 0.00 0.04 0.00 95 1022.1
20260906081035 72 0.0 0.0 0.00 0.04 0.00 95 1022.2
20260906080536 72 0.0 0.0 0.00 0.04 0.00 95 1022.2
20260906080015 72 0.0 0.0 0.00 0.04 0.00 95 1022.3
20260906075516 72 0.0 0.0 0.00 0.04 0.00 95 1022.3
20260906075016 72 0.0 0.0 0.00 0.04 0.00 95 1022.2
20260906074516 72 0.0 0.0 0.00 0.04 0.00 95 1022.2
20260906074016 72 0.0 0.0 0.00 0.04 0.00 95 1022.1
20260906073515 72 0.0 0.0 0.00 0.04 0.00 95 1022.0
20260906073016 72 0.0 0.0 0.00 0.04 0.00 95 1022.0
20260906072515 72 0.0 0.0 0.00 0.04 0.00 95 1022.0
20260906072015 72 0.0 0.0 0.00 0.04 0.00 95 1022.0
20260906071515 72 0.0 0.0 0.00 0.04 0.00 95 1022.0
20260906071015 71 0.0 0.0 0.00 0.04 0.00 95 1021.9
20260906070516 71 0.0 0.0 0.00 0.04 0.00 95 1021.9
20260906070036 71 0.0 0.0 0.00 0.04 0.00 95 1021.8
20260906065515 71 0.0 0.0 0.00 0.04 0.00 95 1021.9
20260906065015 71 0.0 0.0 0.00 0.04 0.00 95 1022.1
20260906064515 71 0.0 0.0 0.00 0.04 0.00 95 1022.2
20260906064036 71 0.0 0.0 0.00 0.04 0.00 95 1022.2
20260906063515 71 0.0 0.0 0.00 0.04 0.00 95 1022.3
20260906063015 71 0.0 0.0 0.00 0.04 0.00 95 1022.3
20260906062516 71 0.0 0.0 0.00 0.04 0.00 95 1022.3
20260906062015 71 0.0 0.0 0.00 0.04 0.00 95 1022.3
20260906061516 71 0.0 0.0 0.00 0.04 0.00 95 1022.4
20260906061015 71 0.0 0.0 0.00 0.04 0.00 95 1022.4
20260906060515 71 0.0 0.0 0.00 0.04 0.00 95 1022.4
20260906060015 71 0.0 0.0 0.00 0.04 0.00 95 1022.4
20260906055515 71 0.0 0.0 0.00 0.04 0.00 95 1022.3
20260906055015 71 0.0 0.0 0.00 0.04 0.00 95 1022.3
20260906054535 71 0.0 0.0 0.00 0.04 0.00 95 1022.2
20260906054015 71 0.0 0.0 0.00 0.04 0.00 95 1022.4
20260906053516 71 0.0 0.0 0.00 0.04 0.00 95 1022.5
20260906053035 71 0.0 0.0 0.00 0.04 0.00 95 1022.4
20260906052515 71 0.0 0.0 0.00 0.04 0.00 95 1022.3
20260906052015 71 0.0 0.0 0.00 0.04 0.00 95 1022.3
20260906051516 71 0.0 0.0 0.00 0.04 0.00 95 1022.2
20260906051016 71 0.0 0.0 0.00 0.04 0.00 95 1022.5
20260906050535 71 0.0 0.0 0.00 0.05 0.00 95 1022.6
20260906050015 71 0.0 0.0 0.00 0.05 0.00 95 1022.6
20260906045556 71 0.0 0.0 0.00 0.05 0.00 95 1022.6
20260906045015 71 0.0 0.0 0.00 0.05 0.00 95 1022.5
20260906044536 71 0.0 0.0 0.00 0.05 0.00 95 1022.5
20260906044015 71 0.0 0.0 0.00 0.05 0.00 95 1022.4
20260906043515 71 0.0 0.0 0.00 0.05 0.00 94 1022.3
20260906043015 71 0.0 0.0 0.00 0.05 0.00 94 1022.3
20260906042516 71 0.0 0.0 0.00 0.05 0.00 94 1022.7
20260906042015 71 0.0 0.0 0.00 0.05 0.00 94 1022.7
20260906041515 71 0.0 0.0 0.00 0.05 0.00 94 1022.7
20260906041015 71 0.0 0.0 0.00 0.05 0.00 94 1022.7
20260906040515 71 0.0 0.0 0.00 0.05 0.00 94 1022.7
20260906040015 71 0.0 0.0 0.00 0.05 0.00 94 1022.7
20260906035516 71 0.0 0.0 0.00 0.05 0.05 94 1022.8
20260906035016 71 0.0 0.0 0.00 0.05 0.05 94 1022.7
20260906034516 71 0.0 0.0 0.00 0.05 0.05 94 1022.7
20260906034016 71 0.0 0.0 0.00 0.05 0.05 94 1022.8
20260906033516 71 0.0 0.0 0.00 0.05 0.05 94 1022.7
20260906033016 71 0.0 0.0 0.00 0.05 0.05 94 1022.9
20260906032516 71 0.0 0.0 0.00 0.05 0.05 94 1022.8
20260906032016 71 0.0 0.0 0.00 0.05 0.05 94 1023.0
20260906031516 72 0.0 0.0 0.00 0.05 0.05 94 1022.8
20260906031016 72 0.0 0.0 0.00 0.05 0.05 94 1022.8
20260906030516 72 0.0 0.0 0.00 0.05 0.05 94 1022.8
20260906030016 72 0.0 0.0 0.00 0.05 0.05 94 1022.8
20260906025516 72 0.0 0.0 0.00 0.05 0.05 94 1022.9
20260906025016 72 0.0 0.0 0.00 0.05 0.05 93 1022.9
20260906024536 72 0.0 0.0 0.00 0.05 0.05 93 1022.8
20260906024016 72 0.0 0.0 0.00 0.05 0.05 93 1022.8
20260906023516 72 0.0 0.0 0.00 0.05 0.05 93 1022.8
20260906023016 72 0.0 0.0 0.00 0.05 0.05 93 1022.8
20260906022516 72 0.0 0.0 0.00 0.05 0.05 93 1022.7
20260906022036 72 0.0 0.0 0.00 0.05 0.05 93 1022.7
20260906021516 72 0.0 0.0 0.00 0.05 0.05 93 1022.8
20260906021016 73 0.0 0.0 0.00 0.05 0.05 93 1022.7
20260906020516 73 0.0 0.0 0.00 0.05 0.05 93 1022.6
20260906020036 73 0.0 0.0 0.00 0.05 0.05 93 1022.7
20260906015516 73 0.0 0.0 0.00 0.05 0.05 93 1022.6
20260906015016 73 0.0 0.0 0.00 0.05 0.05 93 1022.6
20260906014516 73 0.0 0.0 0.00 0.05 0.05 93 1022.6
20260906014016 73 0.0 0.0 0.00 0.05 0.05 93 1022.4
20260906013516 73 0.0 0.0 0.00 0.05 0.05 92 1022.3
20260906013036 73 0.0 0.0 0.00 0.05 0.05 93 1022.1
20260906012516 73 0.0 0.0 0.00 0.05 0.05 92 1022.1
20260906012016 73 0.0 0.0 0.00 0.05 0.05 92 1022.1
20260906011516 73 0.0 0.0 0.00 0.05 0.05 92 1022.2
20260906011016 73 0.0 0.0 0.00 0.05 0.05 92 1022.1
20260906010516 74 0.0 0.0 0.00 0.05 0.05 92 1022.0
20260906010016 74 0.0 0.0 0.00 0.05 0.05 92 1022.0
20260906005516 74 0.0 0.0 0.00 0.05 0.05 92 1022.0
20260906005016 74 0.0 0.0 0.00 0.05 0.05 92 1021.9
20260906004516 74 0.0 0.0 0.00 0.05 0.05 92 1021.7
20260906004016 74 0.0 0.0 0.00 0.05 0.05 91 1021.6
20260906003536 74 0.0 0.0 0.00 0.05 0.05 92 1021.7
20260906003016 74 0.0 0.0 0.00 0.05 0.05 91 1021.7
20260906002516 74 0.0 0.0 0.00 0.05 0.05 91 1021.6
20260906002016 74 0.0 0.0 0.00 0.05 0.05 91 1021.7
20260906001516 74 0.0 0.0 0.00 0.05 0.05 91 1021.5
20260906001056 74 0.0 0.0 0.00 0.05 0.05 91 1021.4
20260906000516 74 0.0 0.0 0.00 0.05 0.05 91 1021.2
20260906000016 74 0.0 0.0 0.00 0.05 0.05 90 1021.1
20260905235516 74 0.0 0.0 0.00 0.05 0.05 89 1021.1
20260905235018 74 0.0 0.0 0.00 0.05 0.05 89 1020.9
20260905234536 75 0.0 0.0 0.00 0.05 0.05 89 1020.8
20260905234017 75 0.0 0.0 0.00 0.05 0.05 88 1020.8
20260905233516 75 0.0 0.0 0.00 0.05 0.05 88 1020.8
20260905233016 75 0.0 0.0 0.00 0.07 0.05 88 1020.9
20260905232536 75 0.0 0.0 0.00 0.15 0.05 87 1021.0
20260905232036 75 0.0 0.0 0.00 0.15 0.05 87 1021.1
20260905231516 75 0.0 0.0 0.00 0.15 0.05 88 1021.1
20260905231016 76 0.0 0.0 0.00 0.15 0.05 86 1021.1
20260905230516 76 0.0 0.0 0.00 0.15 0.05 87 1021.0
20260905230018 76 0.0 0.0 0.00 0.15 0.05 86 1021.2
20260905225516 76 0.0 0.0 0.00 0.15 0.05 86 1021.2
20260905225016 76 0.0 0.0 0.00 0.15 0.05 85 1021.2
20260905224516 76 0.0 0.0 0.00 0.15 0.05 84 1021.0
20260905224016 76 0.0 0.0 0.00 0.15 0.05 84 1020.9
20260905223516 76 0.0 0.0 0.00 0.15 0.05 83 1020.9
20260905223016 76 0.0 0.0 0.00 0.15 0.05 82 1021.0
20260905222516 76 0.0 0.0 0.00 0.15 0.05 81 1021.0
20260905222016 76 0.0 0.0 0.00 0.15 0.05 81 1021.0
20260905221516 76 0.0 0.0 0.00 0.15 0.05 80 1020.9
20260905221036 76 0.0 0.0 0.00 0.15 0.05 80 1020.9
20260905220516 77 0.0 0.0 0.00 0.15 0.05 80 1020.8
20260905220016 77 0.0 0.0 0.00 0.15 0.05 80 1020.8
20260905215516 76 0.0 0.0 0.00 0.15 0.05 81 1021.0
20260905215016 76 0.0 0.0 0.00 0.15 0.05 82 1021.1
20260905214516 77 0.0 0.0 0.00 0.15 0.05 83 1021.1
20260905214016 76 0.0 0.0 0.00 0.15 0.05 84 1021.0
20260905213516 77 0.0 0.0 0.00 0.15 0.05 84 1020.9
20260905213036 77 0.0 0.0 0.00 0.15 0.05 87 1021.0
20260905212536 77 0.0 0.0 0.00 0.15 0.05 87 1020.9
20260905212017 77 0.0 0.0 0.00 0.15 0.05 87 1020.9
20260905211516 77 0.0 0.0 0.00 0.15 0.05 87 1020.8
20260905211016 77 0.0 0.0 0.00 0.15 0.05 85 1020.9
20260905210517 77 0.0 0.0 0.00 0.15 0.05 86 1021.0
20260905210016 77 0.0 0.0 0.00 0.15 0.05 89 1021.3
20260905205517 77 0.0 0.0 0.00 0.15 0.05 89 1021.4
20260905205016 77 0.0 0.0 0.00 0.15 0.05 89 1021.4
20260905204516 77 0.0 0.0 0.00 0.15 0.05 90 1021.5
20260905204016 77 0.0 1.0 0.00 0.15 0.05 89 1021.4
20260905203516 76 0.0 0.0 0.00 0.15 0.05 90 1021.4
20260905203036 76 0.0 1.0 0.01 0.15 0.05 90 1021.4
20260905202516 76 0.0 1.0 0.01 0.15 0.05 89 1021.3
20260905202036 76 0.0 1.0 0.01 0.15 0.05 88 1021.2
20260905201516 76 0.0 1.0 0.01 0.15 0.05 89 1021.1
20260905201036 76 0.0 2.0 0.01 0.15 0.05 90 1021.1
20260905200516 75 0.0 0.0 0.01 0.15 0.05 92 1021.0
20260905200016 75 135 1.0 2.0 0.01 0.15 0.05 92 1021.0
20260905195516 75 0.0 0.0 0.01 0.15 0.05 93 1021.2
20260905195016 75 0.0 1.0 0.01 0.15 0.05 93 1021.2
20260905194516 75 0.0 1.0 0.02 0.15 0.05 93 1021.5
20260905194016 75 0.0 1.0 0.03 0.15 0.05 93 1021.7
20260905193516 75 0.0 0.0 0.03 0.15 0.05 93 1021.5
20260905193037 75 0.0 0.0 0.02 0.14 0.04 92 1021.5
20260905192516 75 0.0 2.0 0.02 0.14 0.04 92 1021.5
20260905192016 75 0.0 0.0 0.02 0.14 0.04 92 1021.8
20260905191516 76 0.0 1.0 0.02 0.14 0.04 92 1021.9
20260905191016 76 0.0 0.0 0.02 0.14 0.04 92 1021.9
20260905190516 76 0.0 0.0 0.02 0.14 0.04 91 1021.9
20260905190016 76 0.0 0.0 0.02 0.14 0.04 90 1021.7
20260905185516 77 0.0 0.0 0.02 0.14 0.04 89 1021.6
20260905185016 77 0.0 0.0 0.02 0.14 0.04 86 1021.7
20260905184516 78 0.0 0.0 0.01 0.13 0.03 84 1021.4
20260905184016 78 0.0 0.0 0.00 0.12 0.02 82 1021.7
20260905183516 78 0.0 3.0 0.00 0.12 0.02 81 1021.6
20260905183016 78 158 1.0 3.0 0.00 0.12 0.02 81 1021.3
20260905182516 78 158 1.0 3.0 0.00 0.12 0.02 84 1021.4
20260905182016 78 158 1.0 3.0 0.00 0.12 0.02 87 1021.7
20260905181516 78 158 1.0 4.0 0.00 0.12 0.02 87 1021.9
20260905181016 78 0.0 3.0 0.00 0.12 0.02 88 1022.0
20260905180516 78 158 2.0 5.0 0.00 0.12 0.02 89 1022.0
20260905180016 77 158 1.0 5.0 0.00 0.12 0.02 89 1022.2
20260905175556 77 135 1.0 2.0 0.00 0.12 0.02 91 1022.2
20260905175016 77 135 1.0 3.0 0.00 0.12 0.02 90 1022.2
20260905174516 76 0.0 2.0 0.00 0.12 0.02 89 1022.2
20260905174016 76 158 1.0 4.0 0.00 0.12 0.02 90 1022.4
20260905173516 76 0.0 3.0 0.00 0.12 0.02 89 1022.5
20260905173016 76 0.0 3.0 0.01 0.12 0.02 90 1022.4
20260905172516 76 0.0 1.0 0.01 0.12 0.02 92 1022.4
20260905172036 76 0.0 1.0 0.01 0.12 0.02 92 1022.5
20260905171516 76 0.0 1.0 0.01 0.12 0.02 91 1022.3
20260905171016 76 0.0 3.0 0.01 0.12 0.02 91 1022.5
20260905170516 76 0.0 1.0 0.01 0.12 0.02 91 1022.8
20260905170036 76 0.0 1.0 0.01 0.12 0.02 90 1022.9
20260905165556 77 0.0 1.0 0.01 0.12 0.02 89 1023.1
20260905165036 77 0.0 1.0 0.01 0.12 0.02 88 1023.1
20260905164516 78 0.0 1.0 0.01 0.12 0.02 86 1023.1
20260905164016 79 0.0 2.0 0.01 0.12 0.02 84 1023.1